カタログに戻る

ONEWEB-0006

運用中通信PO
NORAD 44061·PAYLOAD·🇬🇧 United Kingdom

打ち上げ Feb 27, 2019 から Guiana Space Centre

Loading…

次のパス (今後24時間)

TLE

最新Source: CelesTrak SupGP

元期: Sep 14, 2026, 11:53 UTC

1 44061C 19010E   26257.49564072  .00000396  00000+0  10535-2 0  2575
2 44061  87.8993 241.3844 0001893  84.5158 339.3264 13.15552674    19

AllMySatでONEWEB-0006をリアルタイム追跡

Download on the App Store